CAPE
1684 1704 1531 1555 1705 1903 1944 2438 2490 2650 2615 2683 2674 2803 2853 2904 2668 2564 3015 2948 2913 2933 3116 3199 3352 3204 2795 2987 2808 3294 3921 3732 3773 4004 4202 4296 4253 4104 4093 4260 4144 3923 4129 4022 3845 3742 3868 4113 4280 4340 4377 4006 3866 3818 3551 3404 3422 3347 3483 3512 3238 3310 3097 3158 2951 2954 3274 3253 2532 2231 2165 2502 1926 2628 2483 2036 1935 2339 2682 2847 3924 3613 2787 2842 3116
1766 1928 1924 1674 1544 1578 1594 1818 2141 2416 2391 2614 2598 2711 2741 2867 2960 3074 2766 2953 2973 2806 3018 2837 3096 3179 2941 3192 3413 3350 3891 4302 3738 3765 4003 4191 4049 3494 3847 4188 4095 4046 4134 3996 3881 3750 3763 3969 3930 3970 4409 4164 3761 3430 3463 3387 3163 3141 3363 3333 3167 3154 3528 3048 3034 3113 2872 2904 3343 2914 2562 2643 2350 2683 2792 2699 2400 2724 2652 2548 2410 2364 2789 2846 2561
1574 1999 2011 2004 1914 1691 1685 1804 1869 1905 1789 1991 1755 1665 2183 2527 2886 2894 2579 2590 2988 2904 2990 2836 3329 3428 3240 3345 3813 3670 4104 3818 3742 3891 3955 4112 4006 3325 3044 3526 3729 3704 3617 3848 3662 3684 3686 3678 3391 3468 3487 3667 3835 3478 3139 3268 3230 3300 3210 3266 3310 3113 3294 3389 3283 3051 2930 3092 3352 2688 2514 2965 2911 2623 2740 2626 2948 3202 3668 2921 2026 1862 2295 2591 2479
2080 2224 2047 1975 1840 1904 2023 1832 1549 1527 1499 1621 1580 1573 1494 2010 2589 2535 2509 2427 2701 3104 3029 3037 3446 3731 3538 3666 3898 3841 3946 3802 3777 3856 4129 4124 4040 4189 3859 3789 3527 3495 3516 3362 3192 3484 3489 3487 3195 3019 3251 3534 3742 3650 3336 3146 3101 3296 3298 3231 3442 3231 3360 3539 3631 3210 3060 3157 3332 3308 3031 3061 2948 2588 2697 2780 2871 2922 2758 2607 2836 2820 2765 2298 2022
2120 1986 2057 2198 2309 2138 1865 1853 1816 1765 1602 1575 1653 1615 1632 1601 2055 2203 2227 2246 2456 2698 3207 3273 3434 3587 3187 3431 3674 3852 3774 3802 3980 3570 3579 3685 3889 3517 3553 3826 3590 3691 3440 3551 3605 3416 3320 3296 3121 3158 3116 3170 2944 2757 2714 2910 2930 2841 2749 2810 3072 2973 3099 3281 3497 3442 3400 3233 3077 3384 3852 3503 3306 3392 3244 2773 2548 2640 3184 3887 3425 2865 3204 2456 1647
2577 2611 2570 2461 2708 2645 2465 2155 1936 1975 1858 1750 1720 1666 1638 1679 1758 2017 2039 2161 2421 2323 2573 2805 2886 3358 3289 3151 3232 3559 3754 3786 3930 3810 3235 3290 3630 3617 3573 3769 3505 3515 3451 3288 3379 3372 3051 3129 3169 3186 3012 2925 2633 2514 2817 2837 2608 2264 2635 2806 2746 2920 3311 3276 3624 3752 3604 3420 3335 3055 3155 2712 2942 3036 3344 2974 2398 2259 2426 2458 2656 3435 3698 2501 1610
2653 2518 2534 2562 2722 2746 2681 2215 2136 2039 2140 1957 1922 1913 1857 1777 1716 1668 1900 1972 2006 1910 1907 2292 2659 2721 3066 2954 2746 3123 3442 3331 3733 3861 3665 3432 3431 3678 3174 3396 3589 3566 3424 3135 2840 2771 2852 2854 3100 3278 3203 3186 2791 2551 2564 2684 2427 2324 2779 3238 2573 2786 2436 2474 2746 3073 2984 2776 2521 2714 2955 2903 3056 2884 2998 3390 3046 2935 2703 2228 2202 2078 3241 3788 3350
1871 2280 2095 2175 2196 2156 2007 2176 2461 2544 2295 2393 2240 2086 2063 2019 2050 1976 1964 1915 1801 1678 1559 1566 1989 2190 2394 2511 2643 2754 3102 3105 3351 3501 3392 3179 3043 3197 3260 3091 2923 3073 3106 3191 2994 2582 2522 2479 2084 2311 2854 3182 3305 3108 3022 2882 2738 2450 2496 2775 3020 3014 2726 2282 2494 2556 2815 2186 2315 2256 2439 2861 3076 2925 2915 3455 3516 3410 3458 2359 1906 1993 2212 2804 3005
1317 1137 1487 1843 2149 2204 1874 1911 2408 2590 2244 2244 2109 2076 2025 1986 2063 2021 1996 1997 1810 1741 1798 1739 1794 1953 2039 2334 2434 2400 2319 2565 2617 2878 2968 3101 2813 2647 2813 2947 2960 2957 3108 2784 2662 2932 2672 2326 2157 2150 2610 3197 3209 2798 2587 2692 2635 2678 3146 3366 3402 3124 3047 2774 2930 2979 2927 2724 2877 2940 2990 3113 3051 3231 2800 2870 2468 1957 1752 2132 2188 2063 2188 2349 2776
1186 1029 943 923 1209 1439 1525 1544 1553 1546 1637 1576 1665 1836 1819 1930 1720 1786 2053 1907 1897 1864 1942 1934 1830 1832 1949 2197 2335 2192 2168 2170 2276 1772 1835 2212 2644 2418 2434 2820 2867 2701 2860 2877 2580 2454 2348 2154 1814 2306 2773 2654 2556 2196 1740 1543 1630 2018 2496 2829 3208 3281 3105 2958 2891 2782 2886 2816 2196 1841 1704 1413 848 850 1543 1960 2035 2466 2270 2500 2359 1917 1979 2292 2522
1039 972 979 814 894 1131 1259 1367 1470 1650 1643 1525 1503 1537 1601 1647 1673 1559 1713 1771 1960 2135 1896 1704 1604 1491 1442 1533 1709 1701 1605 1543 1343 1021 871 786 1234 1727 2267 2584 2835 2899 2593 2768 2808 2397 2206 2324 2377 2359 2799 2729 2571 2007 1732 1604 1513 1397 1314 1456 2047 2526 2543 2424 2505 2590 2727 2400 1990 2026 1628 1803 1907 1511 1391 1110 1274 1657 1825 1895 1935 1982 2270 2248 2167
834 883 1031 1059 1092 1048 1054 1082 1120 1149 1246 1354 1366 1482 1679 1800 1783 1713 1558 1548 1810 1556 1553 1867 1989 1565 1494 1329 1228 1170 1326 763 695 674 633 603 584 1144 1365 1706 1902 2174 2312 2185 2214 2174 2179 2055 1903 1765 1870 2203 2252 2373 2715 2472 1723 1455 1324 1231 1180 1134 1556 2282 2536 2549 2675 2592 2491 2329 2106 1915 2035 2136 1570 1174 1732 1712 1876 1888 2114 2219 2067 1963 2024
637 624 773 931 1045 1055 1040 1064 1071 1098 1132 1162 1326 1493 1577 1647 1700 1713 1629 1460 1413 1398 1627 1440 1737 1650 1749 2008 1752 1546 1426 672 657 581 570 544 536 509 790 1138 1400 1604 1829 2102 2169 2135 2209 2114 1957 1663 1437 1594 1861 1786 2128 2348 2330 1474 1002 813 724 721 755 786 899 1862 1930 2190 2473 2392 2284 2321 2448 2450 2222 2338 2378 1844 1793 1582 1717 2066 2245 2343 2310
776 757 748 767 786 819 806 774 750 896 885 1024 1200 1362 1435 1453 1471 1465 1376 1251 1336 1253 1147 1335 1463 1510 1416 1588 1708 1489 1673 893 825 886 917 938 666 501 718 887 1118 1300 1555 1768 1673 1746 1918 2032 1863 1759 1764 1902 2190 2014 1919 2053 2211 2280 2526 2459 2315 2121 1847 860 583 575 790 1369 1822 2018 2326 2886 2953 2728 2626 2644 2469 2030 1552 1219 1318 1413 1704 2015 2240
578 612 576 650 588 696 768 843 796 770 779 838 931 1039 1117 1141 1049 1059 1203 1164 1329 1337 1459 1212 1306 1363 1321 1157 1101 1246 810 869 885 918 953 1135 1072 847 1070 909 975 1156 1243 1412 1667 1703 1742 1653 1791 1813 1889 2049 1996 1865 1539 1506 1751 1841 1840 1786 1672 1723 1830 1728 1734 2045 1887 1213 1311 1543 1682 1815 1968 1952 1957 2283 2253 2164 1981 1702 1405 1481 1769 2012 2126
411 529 498 546 406 480 592 636 628 717 816 896 931 959 964 987 1000 976 923 903 1062 1055 1015 1188 1275 1324 1386 1355 1496 1078 855 847 834 861 841 999 1172 1162 1407 1582 1541 1386 1377 1435 1509 1638 1645 1701 1812 1914 1906 2055 1883 1077 953 1172 1276 1507 1727 1855 1855 1792 1760 1489 1084 1088 1176 1258 1573 1461 1106 1092 1112 1823 1747 926 806 1051 1270 1663 1792 2007 2350 2629 2755
356 360 376 379 395 408 429 456 410 398 584 625 657 800 823 901 935 918 850 782 789 805 853 887 1068 1317 1320 1314 1071 828 943 922 953 954 1066 1186 1244 1508 1451 1597 1688 1539 1438 1467 1412 1378 1378 1443 1634 1534 1511 1723 1318 874 745 637 1029 1254 1560 1600 1600 1577 1578 1616 1416 1011 1026 1055 1076 1015 1032 1039 1072 1151 1170 1097 940 620 459 621 818 890 1419 2090 2192
266 300 332 293 212 305 280 270 337 250 237 413 460 475 476 629 718 752 728 715 711 685 674 740 800 825 982 1088 1036 1019 959 937 878 901 1019 1144 1299 1372 1378 1449 1669 1596 1320 1275 1220 1437 1393 881 898 1199 1518 2036 1140 1082 1118 1061 1067 1270 1458 1527 1586 1610 1750 1675 1932 2072 1188 1165 1106 1043 1032 1014 1015 1050 1085 1045 924 716 574 555 659 888 1348 1788 1991
208 235 249 270 281 306 177 307 312 268 329 302 274 341 351 315 347 433 496 591 624 585 574 554 599 741 826 817 844 872 853 806 844 995 1108 1127 1137 1202 1307 1369 1672 1690 1738 1615 1608 1475 1659 1338 1135 1075 1036 980 990 1017 1070 1126 1157 1187 1187 1316 1376 1618 1731 1852 1827 1834 1888 1820 2074 2912 1487 1762 1218 1176 1105 1028 927 868 870 925 1050 1158 1532 2014 2286
153 153 190 224 242 260 273 294 145 3 206 236 246 226 161 208 148 205 239 255 268 256 300 372 374 320 308 645 692 745 816 869 921 911 866 937 976 998 1060 1070 1118 1160 1197 1260 1618 1874 1908 2018 1777 1403 1397 1416 1447 1445 1390 1320 1228 1202 1190 1185 1415 1641 1648 1544 1356 1252 1509 1658 1740 1695 1778 1968 2022 2058 2039 2092 1753 1276 1313 1344 1377 1376 1427 1926 2042
0 0 0 136 172 182 178 186 213 228 235 258 245 234 217 184 157 70 143 128 133 117 122 120 137 170 214 82 156 298 377 458 545 562 544 525 553 591 731 724 757 853 892 971 974 1171 1340 1227 1274 1294 1287 1355 1378 1355 1330 1341 1396 1419 1415 1379 1538 1467 1490 1513 1502 1547 1510 1559 1529 1737 1863 1905 1900 1946 1977 2022 2046 2148 2006 1604 1432 1550 1862 1992 1960
0 0 0 0 0 0 0 0 0 0 0 0 0 0 0 0 0 0 0 0 0 90 70 67 0 23 82 107 112 110 100 98 117 156 209 245 245 299 333 353 430 550 655 691 749 820 865 903 907 841 882 889 886 847 821 824 896 992 1063 1072 1242 1322 1275 1251 1279 1282 1336 1387 1568 1702 1785 1644 1982 2035 1966 1973 1967 1937 1897 2057 2158 2352 2245 2054 2043
0 0 0 0 0 0 0 0 0 0 0 0 0 0 0 0 1 7 8 2 0 0 0 0 0 0 0 0 0 15 36 10 0 1 0 12 42 59 103 110 131 197 280 362 428 458 492 571 605 636 692 714 742 744 741 839 896 972 1090 1265 1374 1350 1191 1024 888 883 973 1040 1074 1461 1590 1789 1871 1986 2074 2183 2163 2209 2200 2238 2278 2264 2296 2221 2092
0 0 0 0 0 0 0 0 0 0 0 0 0 0 0 0 0 0 0 0 0 0 0 0 0 0 0 0 0 0 0 0 0 0 0 0 0 0 0 0 0 0 80 176 240 285 292 308 326 360 374 383 410 467 472 590 760 928 1102 1250 1256 1207 1043 993 803 813 886 947 943 925 1317 1468 1674 1802 1850 1585 1885 1996 2138 1845 2018 1674 2044 2148 2024
0 0 0 0 0 0 0 0 0 0 0 0 0 0 0 0 0 0 0 0 0 0 0 0 0 0 0 0 0 0 0 0 0 0 0 0 0 0 0 0 0 0 0 10 23 71 117 146 156 185 216 243 287 331 375 410 442 452 484 514 514 490 500 549 565 612 657 749 839 870 898 1085 1363 1499 1620 1855 1841 1841 1833 1879 1473 1789 1797 2029 1980
0 0 0 0 0 0 0 0 0 0 0 0 0 0 0 0 0 0 0 0 0 0 0 0 0 0 0 0 0 0 0 0 0 0 0 0 0 0 0 0 0 0 0 0 0 0 0 0 0 58 66 110 152 195 256 299 336 372 396 385 369 348 317 301 386 344 496 532 574 642 666 693 1049 1196 1330 1383 1549 1505 1583 1619 1600 1628 1671 1818 1873
0 0 0 0 0 0 0 0 0 0 0 0 0 0 0 0 0 0 0 0 0 0 0 0 0 0 0 0 0 0 0 0 0 0 0 0 0 0 0 0 0 0 0 0 0 0 0 0 0 0 0 0 0 0 13 110 152 162 182 209 235 249 246 208 201 429 465 299 310 428 667 652 636 881 980 1150 1229 1279 1255 1307 1261 1317 1384 1505 1684
0 0 0 0 0 0 0 0 0 0 2 1 0 0 0 0 0 0 0 0 0 0 0 0 0 0 0 0 0 0 0 0 0 0 0 0 0 0 0 0 0 0 0 0 0 0 0 0 0 0 0 0 0 0 0 0 0 0 0 0 0 0 28 7 50 110 156 147 156 199 230 461 774 823 880 904 968 1124 1143 1073 1079 1076 1001 1060 1414
0 0 0 0 0 0 0 0 0 1 7 8 11 18 5 2 7 4 2 2 0 0 0 0 0 0 0 0 0 0 0 0 0 0 0 0 0 0 0 0 0 0 0 0 0 0 0 0 0 0 0 0 0 0 0 0 0 0 0 0 0 0 0 0 0 0 0 0 1 1 2 6 24 206 562 648 838 967 1178 1212 1229 1134 1136 1117 1114
3 0 0 0 1 0 0 1 6 10 10 12 16 8 0 0 12 22 1 0 0 0 0 0 0 2 1 0 0 0 0 0 0 0 0 0 0 0 0 0 0 0 0 0 0 0 0 0 0 0 0 0 0 0 0 0 0 0 0 0 0 0 0 0 0 0 0 0 0 0 6 25 44 62 61 74 135 274 400 474 915 1054 940 935 969
2 1 1 3 6 6 7 8 14 25 23 22 22 18 4 2 2 0 0 0 0 0 0 0 0 0 18 8 0 0 0 0 0 0 0 0 0 0 0 0 0 0 0 0 0 0 0 0 0 0 0 0 0 0 0 0 0 0 0 0 0 0 0 0 0 0 0 0 0 0 0 0 0 1 2 2 4 5 26 228 442 665 894 938 950
4 2 1 5 6 11 12 12 12 15 17 22 22 22 18 20 19 0 0 0 0 0 0 0 0 0 0 0 1 4 0 0 0 0 0 0 0 0 0 0 0 0 0 0 9 0 0 0 0 0 0 0 0 0 0 0 0 0 0 0 0 0 0 0 0 1 0 0 1 1 0 0 1 0 0 1 4 5 5 5 6 99 396 696 908
4 4 5 5 6 4 6 10 11 12 11 15 15 16 15 10 7 25 14 0 0 0 0 0 0 0 8 3 0 0 0 0 0 0 0 0 0 0 0 0 0 0 0 0 0 0 0 0 0 0 0 0 0 0 0 0 0 0 0 0 0 0 0 0 0 0 0 1 3 2 2 2 3 4 4 4 4 4 3 2 3 7 22 125 264
4 4 5 4 3 3 4 8 8 8 10 10 8 8 13 11 16 14 13 32 16 3 0 0 1 11 11 4 0 0 0 0 0 0 0 0 0 0 0 0 0 0 3 1 0 0 0 0 0 0 0 0 0 0 0 0 0 0 0 0 0 0 0 0 0 0 0 0 0 0 3 2 5 5 5 5 6 6 5 2 2 2 3 6 6
5 8 1 0 2 0 1 7 10 15 14 13 13 9 11 16 11 10 9 12 8 10 23 32 3 1 6 1 0 0 0 0 0 0 0 0 0 0 0 16 31 10 27 1 0 0 0 0 0 0 0 0 0 0 0 0 0 0 0 0 0 0 0 0 0 0 1 0 0 1 3 6 6 6 5 5 5 6 5 4 4 4 5 5 5
0 0 4 2 1 2 4 4 5 9 12 10 9 6 9 9 8 10 10 12 17 14 11 8 12 0 0 0 0 0 0 0 0 0 0 0 0 0 11 4 2 2 3 3 2 3 2 2 0 0 0 0 0 0 0 0 0 0 0 0 0 0 0 0 0 1 2 2 1 2 2 4 4 4 4 5 4 4 4 4 4 5 6 7 8
0 0 0 0 0 0 3 7 11 6 2 3 5 7 8 8 8 8 9 11 14 10 8 8 5 10 7 5 4 0 0 0 0 0 0 0 0 0 5 5 4 8 5 2 2 3 3 4 4 3 2 0 0 0 0 0 1 0 0 0 1 2 1 2 3 8 5 2 1 2 3 2 3 3 3 4 4 4 4 4 4 3 3 4 6
0 0 1 0 0 0 0 2 5 1 4 5 4 3 6 6 7 7 6 9 8 6 6 8 6 4 6 7 4 10 1 0 0 0 0 4 11 28 8 10 8 7 9 8 9 5 5 4 5 6 3 2 2 2 0 0 0 0 0 0 2 2 2 3 3 4 4 3 1 2 3 3 4 3 2 3 2 3 4 6 5 3 3 4 4
0 0 0 0 0 0 0 0 2 1 2 2 1 1 1 4 4 4 5 7 7 5 8 8 8 7 7 8 9 9 4 1 2 1 2 4 6 7 7 8 9 9 7 6 8 10 8 7 6 6 5 4 4 3 2 0 0 0 0 2 1 2 1 2 3 6 5 4 2 3 4 4 4 3 2 2 2 2 2 2 4 5 5 4 5
0 0 3 0 0 0 0 0 0 0 0 0 0 0 0 0 0 2 6 6 8 6 6 6 6 7 7 8 12 12 7 5 7 7 6 5 7 10 10 9 7 8 7 7 9 7 7 5 4 5 6 4 3 2 0 0 0 0 0 0 0 0 2 2 2 4 4 4 4 4 4 4 3 4 2 3 2 2 2 1 2 4 5 6 6
0 0 1 2 0 0 0 0 0 0 0 0 0 0 0 0 2 4 6 6 6 7 6 8 9 5 7 4 4 7 12 5 6 8 10 9 9 9 7 8 8 7 6 7 8 7 8 6 6 4 5 5 2 3 2 2 0 0 0 0 0 0 0 1 2 3 3 3 4 4 4 2 2 1 1 1 1 1 1 2 2 1 2 4 5
0 0 0 0 1 0 0 0 0 0 0 0 0 1 3 5 5 7 7 7 7 6 6 6 7 11 3 12 15 1 0 5 6 6 7 8 9 8 9 8 9 9 8 8 8 8 7 6 6 5 4 4 4 1 1 1 0 0 0 0 0 0 0 0 0 2 4 3 2 2 2 1 2 1 1 1 1 1 1 0 0 0 0 0 3
0 0 0 0 0 0 0 0 0 0 0 1 3 7 7 9 8 10 6 6 5 5 7 8 7 9 11 39 8 5 9 9 9 8 8 7 7 8 8 6 7 7 9 9 7 8 7 6 4 2 2 2 2 1 1 0 0 0 0 0 0 0 1 1 2 2 2 1 0 0 1 0 0 0 0 0 0 1 1 1 0 0 0 0 1
0 0 0 0 0 0 0 0 0 1 2 5 7 7 6 11 9 6 6 6 7 6 6 8 10 8 8 3 18 10 7 7 8 7 7 8 8 8 8 6 6 6 6 5 5 5 5 5 3 3 4 2 2 2 1 0 0 0 0 0 0 0 1 1 1 2 1 0 0 1 0 0 0 0 0 0 0 0 0 1 0 0 0 0 0
0 0 0 0 0 1 2 5 5 3 7 8 5 6 6 5 5 7 5 5 6 7 4 5 5 6 7 6 7 6 7 6 8 9 10 7 6 7 7 8 7 6 5 3 5 5 5 3 3 4 5 4 2 3 1 1 1 0 0 0 1 0 2 2 2 1 2 2 2 1 0 0 0 0 0 0 0 0 0 0 2 0 0 0 0
0 0 0 1 3 5 6 7 8 3 2 6 4 4 4 4 4 4 4 5 6 6 5 6 7 9 10 9 8 8 8 10 11 11 10 6 7 8 9 8 7 7 6 6 6 6 7 6 6 6 5 4 4 4 6 6 6 8 6 5 2 1 2 2 2 4 3 2 0 0 0 0 0 0 0 0 0 0 0 0 0 0 0 1 0
0 0 2 3 3 6 7 6 7 6 4 4 4 4 3 4 4 4 6 6 6 8 7 7 9 8 8 8 8 8 10 8 10 8 8 8 9 9 10 9 6 8 9 9 9 8 8 7 8 7 6 5 5 6 6 7 6 6 7 6 6 4 2 2 0 0 0 0 0 0 0 0 0 0 0 0 0 1 1 0 0 2 4 1 2
0 0 0 4 5 4 4 3 1 1 1 1 2 1 2 1 4 6 7 7 5 7 8 7 4 4 8 9 10 8 9 8 9 9 8 8 11 10 11 10 8 9 10 10 9 7 8 8 8 9 8 8 7 6 8 6 7 5 4 3 2 1 0 0 0 0 0 0 0 0 0 0 0 0 0 0 0 0 0 0 0 0 0 0 0
0 0 0 2 3 1 2 0 0 0 0 0 0 0 5 7 8 6 4 0 3 5 5 2 4 6 6 5 5 6 9 11 9 8 9 10 11 10 9 9 13 11 10 7 6 8 10 8 9 8 8 8 8 8 8 7 4 2 0 2 1 0 0 0 0 0 0 0 0 0 0 0 0 0 0 0 0 0 0 0 0 0 0 0 0
0 0 0 0 1 0 0 0 0 0 0 0 2 1 4 4 1 1 1 0 1 0 4 5 2 2 0 2 1 3 8 6 3 8 9 8 8 8 9 10 10 9 2 0 2 10 9 8 8 9 9 10 8 8 7 0 0 1 2 1 0 0 0 0 0 0 0 2 1 1 1 1 1 0 0 0 0 0 0 0 0 0 0 0 0
0 0 0 0 0 0 0 0 0 0 0 1 0 1 0 2 0 0 0 0 0 1 0 0 0 1 0 0 0 0 0 0 5 0 9 9 8 9 8 7 0 0 5 6 2 0 9 10 10 9 8 9 8 6 3 1 5 2 0 0 0 0 0 0 0 0 0 0 1 1 0 0 1 2 1 0 0 0 0 0 0 0 0 0 0
Wind_Speed
13 13 13 12 12 11 11 12 11 12 11 12 11 12 12 11 11 11 12 10 10 8 8 7 8 9 8 8 8 9 9 8 9 9 8 8 8 6 6 5 4 4 5 5 4 4 4 5 6 7 7 7 6 6 5 4 4 4 5 5 4 5 4 3 2 2 3 5 4 2 3 4 3 2 2 3 4 5 7 6 5 4 5 6 7
14 16 16 16 13 13 12 13 13 13 12 13 12 12 13 12 12 12 11 10 10 9 8 8 9 9 8 8 9 8 9 8 7 8 7 7 6 7 6 6 5 4 4 4 4 4 4 4 5 5 5 5 6 5 4 5 5 4 5 4 5 4 5 3 3 3 1 2 3 4 2 4 2 2 3 5 6 7 8 7 5 4 4 5 6
16 17 18 18 16 15 15 14 15 14 13 14 12 12 13 13 14 14 12 12 11 9 9 8 9 8 8 8 9 8 8 8 8 7 7 7 6 6 7 7 6 5 4 4 4 4 3 3 3 4 4 4 5 5 5 4 4 5 4 5 5 5 5 5 4 3 2 2 3 2 3 4 3 4 5 5 5 5 6 5 3 3 3 4 5
18 19 18 17 17 17 17 17 16 15 15 16 15 14 15 15 16 15 14 13 13 12 10 9 9 8 7 7 8 8 8 8 7 7 7 7 7 8 8 8 8 7 5 5 5 4 3 3 3 4 4 4 4 5 4 4 4 4 4 4 4 4 5 6 5 3 3 2 3 4 4 4 3 5 6 6 7 6 4 3 4 4 3 3 4
19 19 19 18 19 18 18 18 18 17 17 18 17 16 16 16 16 15 15 15 14 13 13 11 10 9 8 7 7 7 7 8 8 8 8 9 8 8 8 9 8 7 6 6 6 5 3 3 3 3 3 4 5 5 5 6 6 6 5 5 5 5 6 5 5 4 3 1 3 3 3 2 3 6 6 6 6 5 2 3 3 3 4 3 4
23 23 22 21 20 19 18 18 17 16 16 17 17 17 16 16 16 16 15 15 15 14 13 13 12 11 9 8 8 8 9 9 9 9 8 9 10 9 8 8 8 7 7 6 6 6 5 4 4 3 2 3 5 5 5 6 5 5 6 6 6 6 5 4 3 3 1 1 2 5 4 5 5 6 6 3 4 3 1 2 3 5 6 5 3
23 23 23 21 21 19 18 17 17 17 18 19 19 19 18 17 17 16 17 15 14 14 13 13 14 13 11 10 9 9 9 10 11 11 11 11 10 9 8 7 7 7 7 6 6 6 6 6 5 4 3 2 3 4 4 5 4 5 4 4 5 5 5 5 4 3 3 4 4 4 5 3 3 6 4 1 1 4 5 5 5 5 6 6 5
25 25 22 21 19 19 17 17 19 21 22 24 23 22 22 22 21 21 20 18 16 15 15 15 15 15 13 12 11 11 11 12 13 13 13 13 12 10 9 8 7 7 7 7 7 7 7 7 6 6 5 4 3 3 3 4 4 5 4 4 4 3 4 4 4 4 3 4 4 5 5 4 3 2 1 2 3 7 10 10 8 5 4 6 7
26 26 26 23 20 19 19 21 22 24 25 26 26 26 25 24 25 25 23 21 21 19 18 17 17 16 16 15 14 14 13 13 15 16 15 15 14 12 11 10 8 8 7 7 8 8 8 8 7 7 7 6 5 5 5 6 7 7 6 5 5 4 3 4 4 4 3 3 3 3 3 4 4 4 4 6 6 5 7 8 8 8 7 8 9
27 31 31 27 23 21 22 24 23 23 26 27 26 26 26 25 25 26 27 26 24 23 22 21 19 19 18 18 17 16 16 16 17 16 15 16 16 15 15 14 12 10 9 9 8 8 8 8 9 8 9 8 7 6 5 4 4 5 7 8 7 7 6 6 6 6 6 6 5 5 6 7 7 7 7 8 7 8 7 8 6 6 6 7 10
30 30 26 21 19 21 25 25 24 24 26 27 26 26 26 27 27 27 27 27 28 27 24 22 21 21 21 20 19 18 18 19 22 18 15 14 14 14 15 14 14 13 12 11 9 8 8 9 9 9 10 10 9 7 6 6 6 5 3 2 4 6 8 8 8 9 9 8 10 10 10 10 10 9 9 8 8 8 8 8 7 7 7 8 8
31 32 29 24 19 19 22 25 25 25 26 26 26 27 29 28 28 27 26 26 27 25 24 25 25 24 25 24 23 23 23 33 29 23 18 17 16 15 15 15 15 15 15 13 12 11 9 9 9 10 10 11 12 12 12 10 9 8 7 6 5 5 7 8 10 11 10 11 11 12 12 12 12 13 11 9 10 10 10 9 7 7 8 8 9
34 33 31 28 24 19 20 21 20 21 23 24 27 29 31 31 28 28 28 29 28 26 24 25 25 27 29 29 29 29 30 36 31 29 25 21 19 17 17 16 15 15 15 16 15 14 12 10 9 9 9 9 11 10 11 11 12 11 9 7 7 6 7 9 10 10 11 11 11 12 13 13 12 14 14 12 12 9 10 9 9 8 9 9 10
32 31 31 30 30 28 26 25 25 25 25 26 26 28 32 35 36 36 34 33 31 29 27 26 27 28 29 30 30 30 30 33 30 29 28 25 24 22 20 19 18 16 16 16 17 17 16 14 12 10 10 10 11 11 10 9 9 9 10 10 10 9 11 11 11 11 12 12 11 10 11 13 12 12 12 13 12 11 10 9 9 9 9 9 9
30 31 32 32 30 29 27 26 27 28 28 28 28 28 30 35 40 42 41 39 37 35 33 30 28 27 26 26 28 29 34 33 31 30 30 27 26 22 24 23 23 21 20 19 19 19 18 17 15 13 13 13 14 14 11 10 9 9 9 9 9 10 10 11 13 16 17 16 13 11 10 11 10 10 12 14 13 13 12 10 10 10 9 9 10
31 31 33 33 31 29 28 26 26 26 25 25 26 27 28 30 35 39 42 41 40 38 37 35 34 33 32 32 33 37 36 35 35 34 31 29 26 26 27 26 25 24 24 23 22 22 22 21 20 18 17 17 18 20 15 13 11 10 10 10 11 11 12 14 16 16 14 13 14 12 12 12 12 12 12 13 14 14 14 14 15 15 13 12 11
34 33 32 31 31 30 29 29 28 26 24 24 25 25 25 24 26 29 35 39 41 40 39 39 38 36 35 37 42 41 41 41 40 39 37 34 30 32 30 27 26 25 26 26 26 25 25 25 23 22 21 21 24 24 20 17 14 13 12 12 13 13 13 16 22 20 17 15 13 10 8 8 8 8 9 10 15 16 16 15 15 15 13 12 11
34 33 32 32 32 32 30 31 31 29 27 26 27 26 25 23 24 25 29 33 37 40 40 39 39 39 41 42 41 40 40 41 42 42 42 40 37 37 34 31 29 28 29 29 29 28 28 27 24 24 24 26 36 31 28 23 18 16 15 14 13 14 15 18 21 21 22 19 16 14 13 12 11 10 10 11 13 22 22 19 17 17 15 15 12
35 35 35 35 35 34 32 32 32 32 31 29 28 29 31 32 29 25 23 24 27 30 34 36 37 37 37 39 43 41 39 39 42 42 44 45 42 41 39 35 32 30 28 27 29 29 30 30 30 29 30 33 34 32 27 23 21 19 18 17 16 15 17 21 21 20 20 19 18 18 17 17 17 18 18 17 17 23 24 20 18 18 17 16 16
35 35 35 35 35 35 34 34 34 nan 33 31 30 28 27 29 29 27 26 25 24 25 27 29 33 33 31 32 36 37 38 39 40 41 44 47 46 40 39 39 37 35 32 31 28 29 30 30 34 39 39 37 35 33 31 28 25 24 23 20 20 19 22 23 22 21 20 19 18 17 16 16 16 16 17 19 22 25 24 22 20 20 18 16 16
nan nan nan 37 37 35 35 34 35 34 32 32 32 31 29 30 30 nan 31 31 28 26 26 27 28 28 28 nan 34 35 36 37 39 40 42 44 45 42 40 39 38 37 36 34 32 30 32 33 34 41 40 36 32 30 27 27 26 25 24 22 22 24 26 23 23 22 21 20 20 20 20 21 20 20 20 21 21 22 23 23 21 21 21 18 15
nan nan nan nan nan nan nan nan nan nan nan nan nan nan nan nan nan nan nan nan nan nan nan nan nan nan nan 28 29 30 nan nan 35 39 41 42 44 44 40 40 39 38 38 37 36 36 36 36 34 38 38 34 31 30 29 28 27 28 26 26 25 25 26 27 26 26 25 23 21 20 21 21 22 22 22 22 22 23 22 21 22 22 22 19 18
nan nan nan nan nan nan nan nan nan nan nan nan nan nan nan nan nan nan nan nan nan nan nan nan nan nan nan nan nan nan nan nan nan nan nan nan nan nan 41 40 38 37 38 36 36 35 36 35 36 37 34 32 31 30 30 29 28 30 27 27 28 30 30 30 30 29 28 27 26 24 24 24 23 24 24 25 25 26 25 24 23 20 19 17 17
nan nan nan nan nan nan nan nan nan nan nan nan nan nan nan nan nan nan nan nan nan nan nan nan nan nan nan nan nan nan nan nan nan nan nan nan nan nan nan nan nan nan nan 35 34 35 35 35 34 30 29 30 31 31 31 32 32 28 28 28 31 33 34 33 32 30 29 28 26 26 25 26 26 26 27 27 26 26 25 24 23 22 21 20 18
nan nan nan nan nan nan nan nan nan nan nan nan nan nan nan nan nan nan nan nan nan nan nan nan nan nan nan nan nan nan nan nan nan nan nan nan nan nan nan nan nan nan nan nan nan nan 29 26 24 25 26 28 29 29 32 36 35 32 30 30 32 36 36 36 35 35 33 31 28 26 26 27 28 28 28 27 27 27 27 27 26 26 25 23 21
nan nan nan nan nan nan nan nan nan nan nan nan nan nan nan nan nan nan nan nan nan nan nan nan nan nan nan nan nan nan nan nan nan nan nan nan nan nan nan nan nan nan nan nan nan nan nan nan nan nan nan 35 36 40 40 39 36 36 33 33 36 36 36 36 35 35 35 35 34 31 29 29 28 29 29 29 29 29 30 29 29 28 28 27 23
nan nan nan nan nan nan nan nan nan nan nan nan nan nan nan nan nan nan nan nan nan nan nan nan nan nan nan nan nan nan nan nan nan nan nan nan nan nan nan nan nan nan nan nan nan nan nan nan nan nan nan nan nan nan nan 38 38 39 39 39 38 38 39 39 37 37 37 38 36 35 33 31 30 29 29 29 29 30 30 31 30 28 29 27 24
nan nan nan nan nan nan nan nan nan nan nan nan nan nan nan nan nan nan nan nan nan nan nan nan nan nan nan nan nan nan nan nan nan nan nan nan nan nan nan nan nan nan nan nan nan nan nan nan nan nan nan nan nan nan nan nan nan nan nan nan nan nan nan nan nan 41 41 38 37 37 36 35 33 33 32 30 30 30 31 30 30 28 27 27 23
nan nan nan nan nan nan nan nan nan nan nan nan nan nan nan nan nan nan nan nan nan nan nan nan nan nan nan nan nan nan nan nan nan nan nan nan nan nan nan nan nan nan nan nan nan nan nan nan nan nan nan nan nan nan nan nan nan nan nan nan nan nan nan nan nan nan nan nan nan nan nan nan nan 35 35 33 33 32 32 31 31 29 29 27 23
nan nan nan nan nan nan nan nan nan nan nan nan nan nan nan nan nan nan nan nan nan nan nan nan nan nan nan nan nan nan nan nan nan nan nan nan nan nan nan nan nan nan nan nan nan nan nan nan nan nan nan nan nan nan nan nan nan nan nan nan nan nan nan nan nan nan nan nan nan nan nan nan nan nan nan nan 37 35 35 34 32 32 30 29 26
nan nan nan nan nan nan nan nan nan nan nan nan nan nan nan nan nan nan nan nan nan nan nan nan nan nan nan nan nan nan nan nan nan nan nan nan nan nan nan nan nan nan nan nan nan nan nan nan nan nan nan nan nan nan nan nan nan nan nan nan nan nan nan nan nan nan nan nan nan nan nan nan nan nan nan nan nan nan nan 37 37 36 35 33 31
nan nan nan nan nan nan nan nan nan nan nan nan nan nan nan nan nan nan nan nan nan nan nan nan nan nan nan nan nan nan nan nan nan nan nan nan nan nan nan nan nan nan nan nan nan nan nan nan nan nan nan nan nan nan nan nan nan nan nan nan nan nan nan nan nan nan nan nan nan nan nan nan nan nan nan nan nan nan nan nan nan nan 38 36 35
nan nan nan nan nan nan nan nan nan nan nan nan nan nan nan nan nan nan nan nan nan nan nan nan nan nan nan nan nan nan nan nan nan nan nan nan nan nan nan nan nan nan nan nan nan nan nan nan nan nan nan nan nan nan nan nan nan nan nan nan nan nan nan nan nan nan nan nan nan nan nan nan nan nan nan nan nan nan nan nan nan nan nan 42 42
nan nan nan nan nan nan nan nan nan nan nan nan nan nan nan nan nan nan nan nan nan nan nan nan nan nan nan nan nan nan nan nan nan nan nan nan nan nan nan nan nan nan nan nan nan nan nan nan nan nan nan nan nan nan nan nan nan nan nan nan nan nan nan nan nan nan nan nan nan nan nan nan nan nan nan nan nan nan nan nan nan nan nan nan nan
nan nan nan nan nan nan nan nan nan nan nan nan nan nan nan nan nan nan nan nan nan nan nan nan nan nan nan nan nan nan nan nan nan nan nan nan nan nan nan nan nan nan nan nan nan nan nan nan nan nan nan nan nan nan nan nan nan nan nan nan nan nan nan nan nan nan nan nan nan nan nan nan nan nan nan nan nan nan nan nan nan nan nan nan nan
nan nan nan nan nan nan nan nan nan nan nan nan nan nan nan nan nan nan nan nan nan nan nan nan nan nan nan nan nan nan nan nan nan nan nan nan nan nan nan nan nan nan nan nan nan nan nan nan nan nan nan nan nan nan nan nan nan nan nan nan nan nan nan nan nan nan nan nan nan nan nan nan nan nan nan nan nan nan nan nan nan nan nan nan nan
nan nan nan nan nan nan nan nan nan nan nan nan nan nan nan nan nan nan nan nan nan nan nan nan nan nan nan nan nan nan nan nan nan nan nan nan nan nan nan nan nan nan nan nan nan nan nan nan nan nan nan nan nan nan nan nan nan nan nan nan nan nan nan nan nan nan nan nan nan nan nan nan nan nan nan nan nan nan nan nan nan nan nan nan nan
nan nan nan nan nan nan nan nan nan nan nan nan nan nan nan nan nan nan nan nan nan nan nan nan nan nan nan nan nan nan nan nan nan nan nan nan nan nan nan nan nan nan nan nan nan nan nan nan nan nan nan nan nan nan nan nan nan nan nan nan nan nan nan nan nan nan nan nan nan nan nan nan nan nan nan nan nan nan nan nan nan nan nan nan nan
nan nan nan nan nan nan nan nan nan nan nan nan nan nan nan nan nan nan nan nan nan nan nan nan nan nan nan nan nan nan nan nan nan nan nan nan nan nan nan nan nan nan nan nan nan nan nan nan nan nan nan nan nan nan nan nan nan nan nan nan nan nan nan nan nan nan nan nan nan nan nan nan nan nan nan nan nan nan nan nan nan nan nan nan nan
nan nan nan nan nan nan nan nan nan nan nan nan nan nan nan nan nan nan nan nan nan nan nan nan nan nan nan nan nan nan nan nan nan nan nan nan nan nan nan nan nan nan nan nan nan nan nan nan nan nan nan nan nan nan nan nan nan nan nan nan nan nan nan nan nan nan nan nan nan nan nan nan nan nan nan nan nan nan nan nan nan nan nan nan nan
nan nan nan nan nan nan nan nan nan nan nan nan nan nan nan nan nan nan nan nan nan nan nan nan nan nan nan nan nan nan nan nan nan nan nan nan nan nan nan nan nan nan nan nan nan nan nan nan nan nan nan nan nan nan nan nan nan nan nan nan nan nan nan nan nan nan nan nan nan nan nan nan nan nan nan nan nan nan nan nan nan nan nan nan nan
nan nan nan nan nan nan nan nan nan nan nan nan nan nan nan nan nan nan nan nan nan nan nan nan nan nan nan nan nan nan nan nan nan nan nan nan nan nan nan nan nan nan nan nan nan nan nan nan nan nan nan nan nan nan nan nan nan nan nan nan nan nan nan nan nan nan nan nan nan nan nan nan nan nan nan nan nan nan nan nan nan nan nan nan nan
nan nan nan nan nan nan nan nan nan nan nan nan nan nan nan nan nan nan nan nan nan nan nan nan nan nan nan nan nan nan nan nan nan nan nan nan nan nan nan nan nan nan nan nan nan nan nan nan nan nan nan nan nan nan nan nan nan nan nan nan nan nan nan nan nan nan nan nan nan nan nan nan nan nan nan nan nan nan nan nan nan nan nan nan nan
nan nan nan nan nan nan nan nan nan nan nan nan nan nan nan nan nan nan nan nan nan nan nan nan nan nan nan nan nan nan nan nan nan nan nan nan nan nan nan nan nan nan nan nan nan nan nan nan nan nan nan nan nan nan nan nan nan nan nan nan nan nan nan nan nan nan nan nan nan nan nan nan nan nan nan nan nan nan nan nan nan nan nan nan nan
nan nan nan nan nan nan nan nan nan nan nan nan nan nan nan nan nan nan nan nan nan nan nan nan nan nan nan nan nan nan nan nan nan nan nan nan nan nan nan nan nan nan nan nan nan nan nan nan nan nan nan nan nan nan nan nan nan nan nan nan nan nan nan nan nan nan nan nan nan nan nan nan nan nan nan nan nan nan nan nan nan nan nan nan nan
nan nan nan nan nan nan nan nan nan nan nan nan nan nan nan nan nan nan nan nan nan nan nan nan nan nan nan nan nan nan nan nan nan nan nan nan nan nan nan nan nan nan nan nan nan nan nan nan nan nan nan nan nan nan nan nan nan nan nan nan nan nan nan nan nan nan nan nan nan nan nan nan nan nan nan nan nan nan nan nan nan nan nan nan nan
nan nan nan nan nan nan nan nan nan nan nan nan nan nan nan nan nan nan nan nan nan nan nan nan nan nan nan nan nan nan nan nan nan nan nan nan nan nan nan nan nan nan nan nan nan nan nan nan nan nan nan nan nan nan nan nan nan nan nan nan nan nan nan nan nan nan nan nan nan nan nan nan nan nan nan nan nan nan nan nan nan nan nan nan nan
nan nan nan nan nan nan nan nan nan nan nan nan nan nan nan nan nan nan nan nan nan nan nan nan nan nan nan nan nan nan nan nan nan nan nan nan nan nan nan nan nan nan nan nan nan nan nan nan nan nan nan nan nan nan nan nan nan nan nan nan nan nan nan nan nan nan nan nan nan nan nan nan nan nan nan nan nan nan nan nan nan nan nan nan nan
nan nan nan nan nan nan nan nan nan nan nan nan nan nan nan nan nan nan nan nan nan nan nan nan nan nan nan nan nan nan nan nan nan nan nan nan nan nan nan nan nan nan nan nan nan nan nan nan nan nan nan nan nan nan nan nan nan nan nan nan nan nan nan nan nan nan nan nan nan nan nan nan nan nan nan nan nan nan nan nan nan nan nan nan nan
nan nan nan nan nan nan nan nan nan nan nan nan nan nan nan nan nan nan nan nan nan nan nan nan nan nan nan nan nan nan nan nan nan nan nan nan nan nan nan nan nan nan nan nan nan nan nan nan nan nan nan nan nan nan nan nan nan nan nan nan nan nan nan nan nan nan nan nan nan nan nan nan nan nan nan nan nan nan nan nan nan nan nan nan nan
nan nan nan nan nan nan nan nan nan nan nan nan nan nan nan nan nan nan nan nan nan nan nan nan nan nan nan nan nan nan nan nan nan nan nan nan nan nan nan nan nan nan nan nan nan nan nan nan nan nan nan nan nan nan nan nan nan nan nan nan nan nan nan nan nan nan nan nan nan nan nan nan nan nan nan nan nan nan nan nan nan nan nan nan nan
Wind_Direction
221 221 221 218 218 219 220 221 222 218 218 223 218 219 219 214 212 210 225 231 240 249 257 263 267 267 261 260 257 257 257 254 256 259 263 267 266 259 250 249 227 210 209 192 195 203 201 188 188 198 209 202 207 208 214 227 245 252 258 259 255 271 284 291 294 292 306 302 295 273 231 236 235 238 168 166 152 163 141 129 114 90 70 43 48
223 223 221 219 218 218 218 225 227 225 225 227 220 222 223 224 223 224 223 232 242 251 260 261 265 268 268 268 265 259 255 254 249 256 262 267 269 267 271 271 254 227 209 194 204 210 207 187 181 192 209 198 192 188 204 215 223 231 244 243 239 243 274 264 250 261 234 279 283 269 241 265 222 217 178 165 161 151 142 131 111 96 52 40 33
225 228 228 224 220 216 218 223 227 228 225 224 220 216 223 224 228 228 226 230 241 241 251 258 263 267 265 266 268 260 256 245 244 247 251 256 258 256 257 263 259 243 227 222 216 216 193 179 172 200 219 201 191 183 191 198 209 212 203 218 224 227 248 264 250 232 219 214 227 207 236 234 201 169 156 157 145 131 125 122 121 92 43 35 27
227 230 230 229 225 221 219 218 222 225 224 223 220 217 218 224 231 231 229 227 233 236 234 239 252 258 259 264 265 259 254 249 246 250 256 257 258 265 265 265 261 254 243 232 228 233 210 180 176 190 189 169 168 173 180 187 197 213 206 213 224 215 230 253 272 253 236 201 191 182 202 200 171 154 156 152 141 138 122 109 56 38 37 26 26
225 227 228 229 229 225 220 221 222 224 224 225 225 223 220 222 230 232 232 230 230 231 233 234 238 243 244 251 256 257 253 251 252 248 252 256 260 259 263 267 267 265 253 243 239 228 208 181 183 192 181 151 147 153 166 167 178 184 183 199 205 213 228 243 256 269 262 217 162 171 186 181 143 140 153 158 151 134 97 37 28 16 0 10 22
225 228 227 226 227 228 224 224 226 229 232 233 235 233 229 228 230 235 235 233 234 231 234 236 239 241 240 237 238 242 243 247 252 250 250 256 262 261 264 267 268 267 263 256 250 245 227 212 210 215 189 146 147 158 165 159 166 165 168 176 184 194 202 203 234 251 248 160 137 142 155 162 153 144 152 167 153 141 127 319 339 347 342 341 356
226 229 229 227 228 228 227 226 228 231 236 237 236 237 235 232 232 232 237 237 237 236 239 242 246 245 246 244 240 242 242 244 250 253 254 255 258 260 257 263 265 264 262 257 249 246 239 229 230 236 227 190 155 161 168 162 173 162 167 174 182 187 176 180 187 181 168 150 144 134 146 163 157 142 157 175 24 351 335 304 299 306 325 325 340
233 235 236 232 229 231 230 231 232 233 234 238 238 237 235 235 235 234 233 235 236 236 237 242 249 253 254 253 252 250 250 250 254 257 259 260 261 262 262 256 251 253 251 252 250 246 243 236 226 231 237 238 231 207 197 195 195 179 184 190 203 205 186 184 191 192 184 170 161 160 167 180 187 169 172 304 308 318 321 312 307 312 318 320 333
233 236 238 236 232 232 237 239 240 241 240 240 242 242 241 241 242 242 240 236 235 236 238 239 241 248 255 258 258 258 255 255 257 262 267 273 273 271 271 269 263 255 249 241 245 249 246 242 237 235 246 256 251 231 209 215 215 204 203 209 219 228 222 219 230 236 239 229 213 225 225 242 249 252 260 286 297 302 299 302 306 318 326 323 327
231 234 238 239 237 236 237 236 236 241 241 241 242 244 245 243 242 243 244 243 240 238 237 240 241 243 247 255 259 259 258 256 262 275 272 269 276 277 279 280 277 272 266 255 249 249 247 244 238 246 254 250 243 241 244 237 248 230 212 212 216 226 233 233 241 251 254 255 253 249 246 256 255 263 274 286 297 305 297 292 288 286 294 304 316
236 243 246 247 246 245 244 242 238 235 238 241 242 242 242 242 242 242 243 244 244 243 241 242 243 245 247 248 251 254 256 256 263 273 279 281 274 277 280 282 284 285 281 275 263 252 247 250 248 257 269 270 268 278 265 259 261 268 264 242 226 232 230 235 244 250 255 257 263 268 268 269 274 274 280 283 288 284 279 277 276 275 278 277 288
241 245 247 247 249 252 254 254 247 241 244 247 247 246 243 241 241 242 244 245 244 244 246 247 247 248 249 249 247 246 247 248 252 256 265 271 275 272 274 276 279 281 282 280 274 263 251 246 248 251 259 266 261 260 272 283 288 284 283 278 272 279 285 270 259 259 264 264 267 271 272 278 283 283 280 276 277 275 275 271 272 272 271 282 292
239 241 244 243 243 249 253 254 252 250 251 252 252 251 247 242 239 240 244 245 245 245 245 246 248 247 248 249 248 246 248 243 245 252 260 268 278 276 268 272 273 276 277 279 278 276 270 260 252 255 254 270 281 273 271 269 286 307 310 302 295 299 298 303 299 285 264 265 266 268 277 278 278 282 284 281 276 270 267 270 267 267 272 281 293
237 236 237 238 238 242 245 248 248 251 254 256 255 254 251 247 243 242 242 245 247 249 248 247 246 247 248 250 250 251 252 245 246 249 253 262 272 276 267 267 268 267 268 270 270 272 272 269 265 260 258 262 266 270 269 272 270 275 282 284 281 291 310 319 318 319 304 283 276 275 278 282 283 282 284 287 285 281 273 272 268 268 272 283 282
231 231 229 229 231 237 241 245 246 246 249 254 255 254 251 247 246 244 243 244 246 248 248 247 246 246 248 251 253 255 254 243 248 250 256 263 268 270 264 264 264 263 262 263 265 267 268 269 268 265 262 264 264 263 261 266 272 277 278 276 276 275 274 278 286 289 293 298 301 300 293 290 288 285 285 289 293 293 293 288 282 280 283 290 299
235 237 236 235 236 238 239 239 242 248 251 253 255 256 255 252 249 246 245 242 242 243 245 246 249 250 252 255 258 257 252 246 247 248 249 255 267 262 261 260 261 263 265 265 265 266 267 268 268 268 268 267 267 276 279 273 272 276 280 281 280 281 282 287 293 294 297 291 292 291 288 289 289 287 284 284 284 289 289 293 292 294 295 293 292
239 240 241 239 239 239 242 246 247 247 246 246 249 248 251 254 254 250 246 242 240 239 240 241 244 247 253 258 257 255 251 245 243 244 244 245 255 258 258 258 258 259 261 263 264 265 266 267 267 266 266 267 267 277 279 278 270 272 274 276 278 277 278 277 299 313 315 317 319 315 306 298 298 301 302 306 301 290 286 290 295 296 298 295 287
239 238 239 239 236 238 240 241 239 242 247 250 250 251 251 251 254 251 246 242 240 240 242 243 243 245 250 254 256 255 252 248 245 244 242 241 248 255 254 253 253 253 255 256 257 259 260 260 261 262 262 263 260 264 268 274 273 272 272 271 272 276 276 276 277 287 308 314 315 317 317 312 309 309 303 301 305 297 300 302 299 294 299 300 295
238 237 236 235 236 237 241 245 245 248 251 251 253 257 255 255 255 253 250 246 243 243 243 244 245 246 247 251 251 250 250 250 246 243 241 239 243 249 247 246 244 244 247 251 254 256 258 260 259 254 253 254 256 263 269 271 270 270 269 267 268 269 269 265 268 266 266 268 276 283 288 299 299 295 296 310 311 303 304 305 297 299 300 298 294
241 241 240 239 238 239 241 244 246 nan 249 249 250 252 253 254 255 256 256 254 250 247 246 244 245 245 247 252 253 250 249 248 246 244 241 239 238 244 245 244 241 240 243 245 247 251 255 257 265 264 260 256 257 258 261 262 264 265 265 267 265 263 259 259 262 263 263 268 271 273 276 274 276 281 284 288 294 300 304 304 303 300 300 299 298
nan nan nan 243 242 242 243 243 247 248 248 249 249 248 248 249 247 nan 251 253 253 251 251 249 249 249 249 nan 252 250 249 250 252 250 246 243 240 241 247 243 239 239 243 245 245 248 252 253 255 260 256 254 252 252 256 260 262 264 266 266 265 258 258 263 263 266 267 268 272 275 277 278 279 282 284 285 287 288 294 302 302 301 300 299 295
nan nan nan nan nan nan nan nan nan nan nan nan nan nan nan nan nan nan nan nan nan nan nan nan nan nan nan 250 250 251 nan nan 250 252 246 244 243 241 246 247 244 244 244 245 244 247 248 251 253 249 241 242 245 252 257 264 267 270 268 263 259 259 266 268 270 270 271 267 262 263 266 271 274 276 278 278 280 284 286 286 289 293 297 296 295
nan nan nan nan nan nan nan nan nan nan nan nan nan nan nan nan nan nan nan nan nan nan nan nan nan nan nan nan nan nan nan nan nan nan nan nan nan nan 242 245 241 246 245 243 243 245 247 247 248 240 237 239 243 246 251 256 266 271 266 261 265 265 268 272 271 271 271 271 270 268 267 268 269 272 276 276 276 277 277 280 281 282 285 289 294
nan nan nan nan nan nan nan nan nan nan nan nan nan nan nan nan nan nan nan nan nan nan nan nan nan nan nan nan nan nan nan nan nan nan nan nan nan nan nan nan nan nan nan 245 244 247 248 248 246 240 241 242 245 249 251 258 263 259 258 259 262 267 268 267 269 268 268 268 269 270 270 268 270 272 272 271 270 268 270 273 277 281 284 285 288
nan nan nan nan nan nan nan nan nan nan nan nan nan nan nan nan nan nan nan nan nan nan nan nan nan nan nan nan nan nan nan nan nan nan nan nan nan nan nan nan nan nan nan nan nan nan 246 243 243 244 246 249 251 258 262 258 255 257 257 259 263 265 264 263 263 263 265 265 266 265 266 268 268 269 269 270 269 270 274 276 276 276 278 281 284
nan nan nan nan nan nan nan nan nan nan nan nan nan nan nan nan nan nan nan nan nan nan nan nan nan nan nan nan nan nan nan nan nan nan nan nan nan nan nan nan nan nan nan nan nan nan nan nan nan nan nan 250 252 254 254 252 249 250 254 260 264 261 262 262 263 263 262 262 262 262 262 263 264 264 263 266 269 270 269 270 270 273 275 277 279
nan nan nan nan nan nan nan nan nan nan nan nan nan nan nan nan nan nan nan nan nan nan nan nan nan nan nan nan nan nan nan nan nan nan nan nan nan nan nan nan nan nan nan nan nan nan nan nan nan nan nan nan nan nan nan 253 255 256 257 258 259 260 260 259 259 259 259 257 256 256 258 258 259 262 265 264 266 269 269 270 272 271 271 273 275
nan nan nan nan nan nan nan nan nan nan nan nan nan nan nan nan nan nan nan nan nan nan nan nan nan nan nan nan nan nan nan nan nan nan nan nan nan nan nan nan nan nan nan nan nan nan nan nan nan nan nan nan nan nan nan nan nan nan nan nan nan nan nan nan nan 261 260 259 258 256 256 257 258 259 258 258 260 262 264 265 267 267 268 270 274
nan nan nan nan nan nan nan nan nan nan nan nan nan nan nan nan nan nan nan nan nan nan nan nan nan nan nan nan nan nan nan nan nan nan nan nan nan nan nan nan nan nan nan nan nan nan nan nan nan nan nan nan nan nan nan nan nan nan nan nan nan nan nan nan nan nan nan nan nan nan nan nan nan 254 255 257 258 258 259 259 261 260 263 265 268
nan nan nan nan nan nan nan nan nan nan nan nan nan nan nan nan nan nan nan nan nan nan nan nan nan nan nan nan nan nan nan nan nan nan nan nan nan nan nan nan nan nan nan nan nan nan nan nan nan nan nan nan nan nan nan nan nan nan nan nan nan nan nan nan nan nan nan nan nan nan nan nan nan nan nan nan 252 252 251 254 258 260 261 263 263
nan nan nan nan nan nan nan nan nan nan nan nan nan nan nan nan nan nan nan nan nan nan nan nan nan nan nan nan nan nan nan nan nan nan nan nan nan nan nan nan nan nan nan nan nan nan nan nan nan nan nan nan nan nan nan nan nan nan nan nan nan nan nan nan nan nan nan nan nan nan nan nan nan nan nan nan nan nan nan 254 255 258 260 261 263
nan nan nan nan nan nan nan nan nan nan nan nan nan nan nan nan nan nan nan nan nan nan nan nan nan nan nan nan nan nan nan nan nan nan nan nan nan nan nan nan nan nan nan nan nan nan nan nan nan nan nan nan nan nan nan nan nan nan nan nan nan nan nan nan nan nan nan nan nan nan nan nan nan nan nan nan nan nan nan nan nan nan 257 260 263
nan nan nan nan nan nan nan nan nan nan nan nan nan nan nan nan nan nan nan nan nan nan nan nan nan nan nan nan nan nan nan nan nan nan nan nan nan nan nan nan nan nan nan nan nan nan nan nan nan nan nan nan nan nan nan nan nan nan nan nan nan nan nan nan nan nan nan nan nan nan nan nan nan nan nan nan nan nan nan nan nan nan nan 257 259
nan nan nan nan nan nan nan nan nan nan nan nan nan nan nan nan nan nan nan nan nan nan nan nan nan nan nan nan nan nan nan nan nan nan nan nan nan nan nan nan nan nan nan nan nan nan nan nan nan nan nan nan nan nan nan nan nan nan nan nan nan nan nan nan nan nan nan nan nan nan nan nan nan nan nan nan nan nan nan nan nan nan nan nan nan
nan nan nan nan nan nan nan nan nan nan nan nan nan nan nan nan nan nan nan nan nan nan nan nan nan nan nan nan nan nan nan nan nan nan nan nan nan nan nan nan nan nan nan nan nan nan nan nan nan nan nan nan nan nan nan nan nan nan nan nan nan nan nan nan nan nan nan nan nan nan nan nan nan nan nan nan nan nan nan nan nan nan nan nan nan
nan nan nan nan nan nan nan nan nan nan nan nan nan nan nan nan nan nan nan nan nan nan nan nan nan nan nan nan nan nan nan nan nan nan nan nan nan nan nan nan nan nan nan nan nan nan nan nan nan nan nan nan nan nan nan nan nan nan nan nan nan nan nan nan nan nan nan nan nan nan nan nan nan nan nan nan nan nan nan nan nan nan nan nan nan
nan nan nan nan nan nan nan nan nan nan nan nan nan nan nan nan nan nan nan nan nan nan nan nan nan nan nan nan nan nan nan nan nan nan nan nan nan nan nan nan nan nan nan nan nan nan nan nan nan nan nan nan nan nan nan nan nan nan nan nan nan nan nan nan nan nan nan nan nan nan nan nan nan nan nan nan nan nan nan nan nan nan nan nan nan
nan nan nan nan nan nan nan nan nan nan nan nan nan nan nan nan nan nan nan nan nan nan nan nan nan nan nan nan nan nan nan nan nan nan nan nan nan nan nan nan nan nan nan nan nan nan nan nan nan nan nan nan nan nan nan nan nan nan nan nan nan nan nan nan nan nan nan nan nan nan nan nan nan nan nan nan nan nan nan nan nan nan nan nan nan
nan nan nan nan nan nan nan nan nan nan nan nan nan nan nan nan nan nan nan nan nan nan nan nan nan nan nan nan nan nan nan nan nan nan nan nan nan nan nan nan nan nan nan nan nan nan nan nan nan nan nan nan nan nan nan nan nan nan nan nan nan nan nan nan nan nan nan nan nan nan nan nan nan nan nan nan nan nan nan nan nan nan nan nan nan
nan nan nan nan nan nan nan nan nan nan nan nan nan nan nan nan nan nan nan nan nan nan nan nan nan nan nan nan nan nan nan nan nan nan nan nan nan nan nan nan nan nan nan nan nan nan nan nan nan nan nan nan nan nan nan nan nan nan nan nan nan nan nan nan nan nan nan nan nan nan nan nan nan nan nan nan nan nan nan nan nan nan nan nan nan
nan nan nan nan nan nan nan nan nan nan nan nan nan nan nan nan nan nan nan nan nan nan nan nan nan nan nan nan nan nan nan nan nan nan nan nan nan nan nan nan nan nan nan nan nan nan nan nan nan nan nan nan nan nan nan nan nan nan nan nan nan nan nan nan nan nan nan nan nan nan nan nan nan nan nan nan nan nan nan nan nan nan nan nan nan
nan nan nan nan nan nan nan nan nan nan nan nan nan nan nan nan nan nan nan nan nan nan nan nan nan nan nan nan nan nan nan nan nan nan nan nan nan nan nan nan nan nan nan nan nan nan nan nan nan nan nan nan nan nan nan nan nan nan nan nan nan nan nan nan nan nan nan nan nan nan nan nan nan nan nan nan nan nan nan nan nan nan nan nan nan
nan nan nan nan nan nan nan nan nan nan nan nan nan nan nan nan nan nan nan nan nan nan nan nan nan nan nan nan nan nan nan nan nan nan nan nan nan nan nan nan nan nan nan nan nan nan nan nan nan nan nan nan nan nan nan nan nan nan nan nan nan nan nan nan nan nan nan nan nan nan nan nan nan nan nan nan nan nan nan nan nan nan nan nan nan
nan nan nan nan nan nan nan nan nan nan nan nan nan nan nan nan nan nan nan nan nan nan nan nan nan nan nan nan nan nan nan nan nan nan nan nan nan nan nan nan nan nan nan nan nan nan nan nan nan nan nan nan nan nan nan nan nan nan nan nan nan nan nan nan nan nan nan nan nan nan nan nan nan nan nan nan nan nan nan nan nan nan nan nan nan
nan nan nan nan nan nan nan nan nan nan nan nan nan nan nan nan nan nan nan nan nan nan nan nan nan nan nan nan nan nan nan nan nan nan nan nan nan nan nan nan nan nan nan nan nan nan nan nan nan nan nan nan nan nan nan nan nan nan nan nan nan nan nan nan nan nan nan nan nan nan nan nan nan nan nan nan nan nan nan nan nan nan nan nan nan
nan nan nan nan nan nan nan nan nan nan nan nan nan nan nan nan nan nan nan nan nan nan nan nan nan nan nan nan nan nan nan nan nan nan nan nan nan nan nan nan nan nan nan nan nan nan nan nan nan nan nan nan nan nan nan nan nan nan nan nan nan nan nan nan nan nan nan nan nan nan nan nan nan nan nan nan nan nan nan nan nan nan nan nan nan
nan nan nan nan nan nan nan nan nan nan nan nan nan nan nan nan nan nan nan nan nan nan nan nan nan nan nan nan nan nan nan nan nan nan nan nan nan nan nan nan nan nan nan nan nan nan nan nan nan nan nan nan nan nan nan nan nan nan nan nan nan nan nan nan nan nan nan nan nan nan nan nan nan nan nan nan nan nan nan nan nan nan nan nan nan
nan nan nan nan nan nan nan nan nan nan nan nan nan nan nan nan nan nan nan nan nan nan nan nan nan nan nan nan nan nan nan nan nan nan nan nan nan nan nan nan nan nan nan nan nan nan nan nan nan nan nan nan nan nan nan nan nan nan nan nan nan nan nan nan nan nan nan nan nan nan nan nan nan nan nan nan nan nan nan nan nan nan nan nan nan
nan nan nan nan nan nan nan nan nan nan nan nan nan nan nan nan nan nan nan nan nan nan nan nan nan nan nan nan nan nan nan nan nan nan nan nan nan nan nan nan nan nan nan nan nan nan nan nan nan nan nan nan nan nan nan nan nan nan nan nan nan nan nan nan nan nan nan nan nan nan nan nan nan nan nan nan nan nan nan nan nan nan nan nan nan
nan nan nan nan nan nan nan nan nan nan nan nan nan nan nan nan nan nan nan nan nan nan nan nan nan nan nan nan nan nan nan nan nan nan nan nan nan nan nan nan nan nan nan nan nan nan nan nan nan nan nan nan nan nan nan nan nan nan nan nan nan nan nan nan nan nan nan nan nan nan nan nan nan nan nan nan nan nan nan nan nan nan nan nan nan
nan nan nan nan nan nan nan nan nan nan nan nan nan nan nan nan nan nan nan nan nan nan nan nan nan nan nan nan nan nan nan nan nan nan nan nan nan nan nan nan nan nan nan nan nan nan nan nan nan nan nan nan nan nan nan nan nan nan nan nan nan nan nan nan nan nan nan nan nan nan nan nan nan nan nan nan nan nan nan nan nan nan nan nan nan